Elmira, NY

1:37 PM EST on November 23, 2017 (GMT -0500)
Elmira-Corning Regional

Weather History for KELM - April, 2013

Change the Weather History Date:

Thursday, April 4, 2013

  Actual Average Record
Temperature  
Mean Temperature 36 °F -  
Max Temperature 55 °F 53 °F 83 °F (1963)
Min Temperature 17 °F 31 °F 16 °F (1954)
Degree Days  
Heating Degree Days 30    
Moisture  
Dew Point 15 °F    
Average Humidity 48    
Maximum Humidity 81    
Minimum Humidity 22    
Precipitation  
Precipitation 0.00 in - - ()
Sea Level Pressure  
Sea Level Pressure 30.21 in    
Wind  
Wind Speed 3 mph (SSW)    
Max Wind Speed 14 mph    
Max Gust Speed 21 mph    
Visibility 10 miles    
Events      
Averages and records for this station are not official NWS values.
T = Trace of Precipitation, MM = Missing Value Source: NWS Daily Summary

Daily Weather History Graph

Daily Weather History Graph

Search for Another Location

Airport or City:

Trip Planner

Search our weather history database for the weather conditions in past years. The results will help you decide how hot, cold, wet, or windy it might be!

Date:

Astronomy

Apr. 04, 2013 Rise Set
Actual Time 6:44 AM EDT 7:36 PM EDT
Civil Twilight 6:16 AM EDT 8:05 PM EDT
Nautical Twilight 5:42 AM EDT 8:39 PM EDT
Astronomical Twilight 5:07 AM EDT 9:14 PM EDT
Moon 3:15 AM EDT (4/4) 1:47 PM EDT (4/4)
Length of Visible Light 13h 49m
Length of Day
12h 52m
Waning Crescent, 34% of the Moon is Illuminated
Apr 4
Waning Crescent
Apr 10
New
Apr 18
First Quarter
Apr 25
Full
May 2
Last Quarter

Hourly Weather History & Observations

Time (EDT) Temp. Windchill Dew Point Humidity Pressure Visibility Wind Dir Wind Speed Gust Speed Precip Events Conditions
12:53 AM 25.0 °F - 12.0 °F 58% 30.36 in 10.0 mi Calm Calm - N/A   Clear
1:53 AM 24.1 °F - 12.9 °F 62% 30.35 in 10.0 mi Calm Calm - N/A   Clear
2:53 AM 19.9 °F - 14.0 °F 78% 30.36 in 10.0 mi Calm Calm - N/A   Clear
3:53 AM 21.0 °F - 14.0 °F 74% 30.35 in 10.0 mi Calm Calm - N/A   Clear
4:53 AM 19.0 °F - 14.0 °F 81% 30.36 in 10.0 mi Calm Calm - N/A   Clear
5:53 AM 18.0 °F 12.7 °F 12.9 °F 81% 30.38 in 10.0 mi SSW 3.5 mph - N/A   Clear
6:53 AM 17.1 °F - 12.0 °F 81% 30.38 in 10.0 mi Calm Calm - N/A   Clear
7:53 AM 23.0 °F 18.4 °F 17.1 °F 78% 30.38 in 10.0 mi West 3.5 mph - N/A   Clear
8:53 AM 27.0 °F 21.6 °F 17.1 °F 66% 30.37 in 10.0 mi SSW 4.6 mph - N/A   Clear
9:53 AM 33.1 °F 30.0 °F 16.0 °F 50% 30.32 in 10.0 mi West 3.5 mph - N/A   Clear
10:53 AM 37.0 °F - 17.1 °F 44% 30.31 in 10.0 mi Calm Calm - N/A   Clear
11:53 AM 42.1 °F 40.2 °F 16.0 °F 35% 30.26 in 10.0 mi Variable 3.5 mph - N/A   Clear
12:53 PM 46.9 °F - 17.1 °F 30% 30.22 in 10.0 mi Variable 4.6 mph - N/A   Clear
1:53 PM 51.1 °F - 15.1 °F 24% 30.17 in 10.0 mi SSW 8.1 mph 16.1 mph N/A   Clear
2:53 PM 52.0 °F - 15.1 °F 23% 30.12 in 10.0 mi SSW 9.2 mph 20.7 mph N/A   Clear
3:53 PM 53.1 °F - 15.1 °F 22% 30.08 in 10.0 mi SSW 12.7 mph - N/A   Clear
4:53 PM 54.0 °F - 15.1 °F 22% 30.05 in 10.0 mi SSW 13.8 mph - N/A   Clear
5:53 PM 53.1 °F - 16.0 °F 23% 30.04 in 10.0 mi SSW 8.1 mph - N/A   Clear
6:53 PM 51.1 °F - 16.0 °F 25% 30.04 in 10.0 mi SSW 12.7 mph - N/A   Clear
7:53 PM 46.9 °F - 16.0 °F 29% 30.03 in 10.0 mi South 9.2 mph - N/A   Clear
8:53 PM 44.1 °F 39.5 °F 15.1 °F 31% 30.02 in 10.0 mi South 8.1 mph - N/A   Clear
9:53 PM 41.0 °F 37.1 °F 15.1 °F 35% 30.01 in 10.0 mi South 5.8 mph - N/A   Clear
10:53 PM 39.0 °F 35.7 °F 16.0 °F 39% 29.99 in 10.0 mi WSW 4.6 mph - N/A   Clear
11:53 PM 32.0 °F - 18.0 °F 56% 29.98 in 10.0 mi Calm Calm - N/A   Clear